Regional Weather Roundup
Issued by NWS Mobile, AL

Home | Current Version | Previous Version | Text Only | Print | Product List | Glossary On
Versions: 1 2 3 4 5 6 7 8 9 10 11 12 13 14 15 16 17 18 19 20 21 22 23 24 25 26
000
ASUS44 KMOB 210012
RWRMOB
REGIONAL WEATHER ROUNDUP
NATIONAL WEATHER SERVICE MOBILE AL
700 PM CDT FRI APR 20 2018

NOTE: "FAIR" INDICATES FEW OR NO CLOUDS BELOW 12,000 FEET WITH NO
      SIGNIFICANT WEATHER AND/OR OBSTRUCTIONS TO VISIBILITY.

  * THESE STATIONS ARE PART OF THE UNIVERSITY OF SOUTH ALABAMA
    MESONET AND ARE NOT UNDER NWS OR FAA QUALITY CONTROL.

ALZ061>064-210100-
COASTAL ALABAMA

CITY           SKY/WX    TMP DP  RH WIND       PRES   REMARKS
MOBILE REG APT FAIR      67  46  47 NE12      30.19R
6HR MIN TEMP:  67; 6HR MAX TEMP:  72;

BROOKLEY FIELD FAIR      69  47  45 N6        30.19R
6HR MIN TEMP:  67; 6HR MAX TEMP:  74;

USA CAMPUS*    NOT AVBL
DOG RIVER*     NOT AVBL


CITY           SKY/WX    TMP DP  RH WIND       PRES   REMARKS
GULF SHORES    FAIR      63  49  61 N5        30.18S

$$

ALZ051>060-210100-
INTERIOR SOUTHWEST AND SOUTH CENTRAL ALABAMA

CITY           SKY/WX    TMP DP  RH WIND       PRES   REMARKS
GREENVILLE     FAIR      67  42  40 NE5       30.20R
6HR MIN TEMP:  67; 6HR MAX TEMP:  74;

EVERGREEN      FAIR      68  46  45 NE5       30.20S
6HR MIN TEMP:  68; 6HR MAX TEMP:  74;

ATMORE*          N/A     68  50  52 NE5       30.93S
ANDALUSIA/OPP  FAIR      70  45  40 NE7       30.18S
6HR MIN TEMP:  69; 6HR MAX TEMP:  77;

ANDALUSIA*       N/A     68  46  45 NE5       30.18F
FLORALA APT    FAIR      66  46  48 NE5       30.20S
6HR MIN TEMP:  66; 6HR MAX TEMP:  76;

FLORALA*       NOT AVBL

$$

FLZ001>006-210100-
WESTERN FLORIDA PANHANDLE

CITY           SKY/WX    TMP DP  RH WIND       PRES   REMARKS
PENSACOLA      FAIR      68  46  45 S5        30.16S
6HR MIN TEMP:  68; 6HR MAX TEMP:  74;

NAS PENSACOLA  MOCLDY    65  49  56 SW3       30.16S
6HR MIN TEMP:  65; 6HR MAX TEMP:  72;

MILTON         FAIR      67  49  52 S7        30.17R
6HR MIN TEMP:  67; 6HR MAX TEMP:  75;

WHTNG S FIELD  FAIR      66  50  56 S5        30.17R
6HR MIN TEMP:  66; 6HR MAX TEMP:  76;



CITY           SKY/WX    TMP DP  RH WIND       PRES   REMARKS
JAY*           NOT AVBL
DUKE FIELD     PTCLDY    69  47  44 CALM      30.16S
CRESTVIEW      FAIR      69  46  43 NE5       30.18S
6HR MIN TEMP:  69; 6HR MAX TEMP:  78;

VALPARAISO     MOCLDY    68  47  47 SW5       30.16S
6HR MIN TEMP:  68; 6HR MAX TEMP:  75;

DESTIN         FAIR      70  50  49 CALM      30.16S
6HR MIN TEMP:  70; 6HR MAX TEMP:  77;


$$

MSZ076-079-210100-
INTERIOR SOUTHEAST MISSISSIPPI

CITY           SKY/WX    TMP DP  RH WIND       PRES   REMARKS
LEAKESVILLE*   NOT AVBL
AGRICOLA*        N/A     66  45  45 NE2       30.18S

$$

MARINE OBSERVATIONS

STATION/POSITION TIME  TEMP    WIND        PRES    WAVE
                       AIR SEA DIR/SP/G            HT/PER
                 (UTC) (F)     (DEG/KT/KT) (MB)    (FT/S)
PETIT BOIS ISLND 2348   63     250/  1/  2 1022.9R
GRAND BAY        2230   66     220/  4     1023.0S
KATRINA CUT      2330   65     190/  4     1022.4S
CEDAR POINT      2330   65     210/  6       N/A
E DAUPHIN ISLAND 0000   66     290/  2/  2 1021.8F
MIDDLE BAY LIGHT 2330   65     220/ 13     1021.3R
USCG MOBILE BAY  2348   69 66  340/  4/  7 1021.8R
STATE DOCKS      2348   69 66              1021.8R
MEAHER PARK      2330   69     350/  5     1021.7S
WEEKS BAY        2245   67                 1021.0F
FORT MORGAN      2348   66      CALM  /  1   N/A
12 S ORANGE BCH  2350   65     300/  4/  6 1021.7F   1/ 5
PENSACOLA BAY    2348   70 71  200/  4/  6 1021.7S
64 S DAUPHIN ISL 2350      71   30/  8/ 10 1021.4F   2/ 5
67 S FORT MORGAN 2330   64                 1021.0F

$$

SELECTED LOCATIONS ACROSS THE REGION

CITY           SKY/WX    TMP DP  RH WIND       PRES   REMARKS
NEW ORLEANS    MOCLDY    66  45  46 E7        30.16F
GULFPORT       FAIR      64  49  57 CALM      30.17F
PASCAGOULA AP  FAIR      62  48  60 CALM      30.18S
PASCAGOULA*    NOT AVBL
HATTIESBURG    FAIR      67  45  45 E5        30.19F
LAUREL         FAIR      66  46  48 CALM      30.20S
MERIDIAN       FAIR      68  39  34 NE10      30.20F
JACKSON        FAIR      66  43  43 E3        30.17F
MONTGOMERY     FAIR      67  43  41 E7        30.22R
TROY           FAIR      65  43  44 NE7       30.22R
ASHFORD*         N/A     68  46  45 NE5       30.18F
DOTHAN         FAIR      69  39  33 NE8       30.24R
PANAMA CITY    FAIR      70  50  49 W3        30.15R

$$





USA.gov is the U.S. government's official web portal to all federal, state and local government web resources and services.